Skip Page Navigation
NASA JPL Caltech
NASA Logo - Jet Propulsion Laboratory + View the NASA Portal
+ Near-Earth Object (NEO) Program
Search JPL
JPL Home Earth Solar System Stars & Galaxies Technology
JPL Solar System Dynamics
BODIES ORBITS EPHEMERIDES TOOLS PHYSICAL DATA DISCOVERY FAQ SITE MAP
JPL Small-Body Database Browser
Search: [ help ]  
308635 (2005 YU55)
Classification: Apollo [NEO, PHA]          SPK-ID: 2308635
Ephemeris | Orbit Diagram | Orbital Elements | Physical Parameters | Discovery Circumstances | Close-Approach Data ]

[ show orbit diagram ]
Orbital Elements at Epoch 2457600.5 (2016-Jul-31.0) TDB
Reference: JPL 120 (heliocentric ecliptic J2000)
 Element Value Uncertainty (1-sigma)   Units 
e .4305057592002002 2.2666e-09  
a 1.157312965645888 1.4777e-08 au
q .6590830687382697 6.6662e-09 au
i .3404479590356942 7.8415e-07 deg
node 35.93368562051191 2.985e-05 deg
peri 273.6059170048306 2.9312e-05 deg
M 333.5411380599271 2.7819e-05 deg
tp 2457633.922837256391
(2016-Sep-02.42283726)
3.5781e-05 JED
period 454.7520388273917
1.25
8.7096e-06
2.385e-08
d
yr
n .7916402110659776 1.5162e-08 deg/d
Q 1.655542862553506 2.1138e-08 au
  Orbit Determination Parameters
   # obs. used (total)      3662  
   # delay obs. used      9  
   # Doppler obs. used      10  
   data-arc span      2183 days (5.98 yr)  
   first obs. used      2005-12-24  
   last obs. used      2011-12-16  
   planetary ephem.      DE431  
   SB-pert. ephem.      SB431-BIG16  
   condition code      0  
   fit RMS      .3182  
   data source      ORB  
   producer      Otto Matic  
   solution date      2014-Jun-12 13:31:54  

Additional Information
 Earth MOID = .000457929 au 
 Jupiter MOID = 3.60941 au 
 T_jup = 5.347 
[ show covariance matrix ]

Ephemeris | Orbit Diagram | Orbital Elements | Physical Parameters | Discovery Circumstances | Close-Approach Data ]

Physical Parameter Table
Parameter Symbol Value Units Sigma Reference Notes
absolute magnitude H 21.9 mag n/a MPO254628  
magnitude slope G -0.12   n/a The Astronomer's Telegram, #3763  
diameter diameter 0.4 km n/a 2010 radar result http://echo.jpl.nasa.gov/asteroids/2005YU55/2005YU55_planning.html
rotation period rot_per 18 h n/a 2010 radar result http://echo.jpl.nasa.gov/asteroids/2005YU55/2005YU55_planning.html
SMASSII spectral type spec_B C type   n/a M. Hicks et al., ATel 2571, 2010 also R. Binzel, personal communication

308635 (2005 YU55)          Discovered 2005-Dec-28 by Spacewatch at Kitt Peak
Reference: 20111210/Numbers.arcLast Updated: 2011-12-12

[ show close-approach data ]
Ephemeris | Orbit Diagram | Orbital Elements | Physical Parameters | Discovery Circumstances | Close-Approach Data ]
ABOUT SSD CREDITS/AWARDS PRIVACY/COPYRIGHT GLOSSARY LINKS
FirstGov 2016-Apr-30 09:01 UT
(server date/time)  
NASA Home Page
Site Manager:   Ryan S. Park
Webmaster  Alan B. Chamberlin